"2009-11-11 00:00:00",1405726,0.715,213,12.64,0.536,10.41,104.1977,10.02,10.96,41.52,0,110.2,13.34,10.81,175.0
"2009-11-11 00:00:30",1405727,1.306,167.8,7.839,0.89,11.69,104.1808,9.98,11.11,42.6,0,110.1,13.35,10.76,129.8
"2009-11-11 00:01:00",1405728,2.894,163.2,9.49,1.261,13.98,104.1669,9.94,11.11,42.86,0,110.2,13.35,10.73,125.2
"2009-11-11 00:01:30",1405729,1.509,153.4,3.443,0.261,10.4,104.1638,9.93,11.03,43.16,0,110.2,13.35,10.72,115.4
"2009-11-11 00:02:00",1405730,1.811,151.5,2.502,0.057,9.89,104.1638,9.93,10.94,43.32,0,110.2,13.38,10.72,113.5
"2009-11-11 00:02:30",1405731,1.855,156.8,2.828,0.061,10.01,104.1638,9.93,10.93,43.39,0,110.2,13.38,10.72,118.8
"2009-11-11 00:03:00",1405732,1.813,158.8,4.238,0.478,10.57,104.1627,9.93,10.92,43.37,0,110.2,13.35,10.72,120.8
"2009-11-11 00:03:30",1405733,2.085,160.1,6.733,0.901,11.38,104.1447,9.88,11.05,43.39,0,110.2,13.35,10.67,122.1
"2009-11-11 00:04:00",1405734,3.141,167.4,8.91,1.31,13.44,104.1303,9.85,11.13,43.37,0,110.2,13.35,10.63,129.4
"2009-11-11 00:04:30",1405735,2.617,161.8,7.561,1.262,12.68,104.13,9.85,10.98,43.09,0,110.2,13.35,10.63,123.8
"2009-11-11 00:05:00",1405736,1.6,154.5,3.303,0.058,10.37,104.13,9.85,10.89,42.9,0,110.2,13.38,10.63,116.5
"2009-11-11 00:05:30",1405737,1.75,154.9,4.65,0.491,11.01,104.13,9.85,11,43,0,110.2,13.38,10.63,116.9
"2009-11-11 00:06:00",1405738,2.772,154.8,10.59,1.379,12.63,104.1289,9.84,10.92,42.75,0,110.2,13.35,10.63,116.8
"2009-11-11 00:06:30",1405739,2.638,152.9,6.137,1.28,13.05,104.119,9.82,11.07,42.74,0,110.2,13.34,10.60,114.9
"2009-11-11 00:07:00",1405740,1.5,145.9,3.793,0.513,10.96,104.1136,9.8,11,42.67,0,110.2,13.35,10.59,107.9
"2009-11-11 00:07:30",1405741,1.73,147.4,4.469,0.91,10.96,104.1038,9.78,10.86,42.56,0,110.2,13.35,10.57,109.4
"2009-11-11 00:08:00",1405742,1.328,152.2,2.99,0.05,10.37,104.1008,9.77,10.83,42.58,0,110.2,13.38,10.56,114.2
"2009-11-11 00:08:30",1405743,2.064,154.8,5.014,1.185,12.11,104.1058,9.78,10.92,42.58,0,110.2,13.35,10.57,116.8
"2009-11-11 00:09:00",1405744,3.093,151.6,7.125,1.314,13.54,104.1111,9.8,11.05,42.67,0,110.2,13.35,10.58,113.6
"2009-11-11 00:09:30",1405745,2.358,136.6,7.8,1.13,12.13,104.1112,9.8,10.93,42.81,0,110.2,13.35,10.58,98.6
"2009-11-11 00:10:00",1405746,1.767,131.2,3.089,0.146,10.29,104.111,9.8,10.81,42.84,0,110.2,13.39,10.58,93.2
"2009-11-11 00:10:30",1405747,1.769,129.6,3.259,0.062,10.3,104.1145,9.81,10.8,42.89,0,110.2,13.39,10.59,91.6
"2009-11-11 00:11:00",1405748,1.606,127.2,2.152,0.092,10.8,104.0999,9.77,10.92,43.03,0,110.2,13.39,10.56,89.2
"2009-11-11 00:11:30",1405749,2.675,128.4,7.65,1.345,12.85,104.0957,9.76,10.84,42.94,0,110.1,13.36,10.54,90.4
"2009-11-11 00:12:00",1405750,1.589,125,4.858,1.104,11.56,104.0969,9.76,10.82,42.88,0,110.2,13.36,10.55,87.0
"2009-11-11 00:12:30",1405751,2.102,135.1,5.665,1.26,12.66,104.0972,9.76,10.95,42.95,0,110.1,13.36,10.55,97.1
"2009-11-11 00:13:00",1405752,0.77,129.8,3.083,0.037,10.08,104.0975,9.76,10.77,42.77,0,110.1,13.39,10.55,91.8
"2009-11-11 00:13:30",1405753,0.71,137,1.904,0.032,10.22,104.0975,9.76,10.76,42.63,0,110.1,13.39,10.55,99.0
"2009-11-11 00:14:00",1405754,1.136,137.6,4.332,0.921,11,104.0975,9.76,10.75,42.52,0,110.1,13.36,10.55,99.6
"2009-11-11 00:14:30",1405755,2.568,139.9,6.945,1.258,13.64,104.0975,9.76,10.99,42.73,0,110.1,13.36,10.55,101.9
"2009-11-11 00:15:00",1405756,1.887,130.4,7.699,1.26,12.59,104.0961,9.76,10.92,42.5,0,110.1,13.37,10.55,92.4
"2009-11-11 00:15:30",1405757,0.969,119.2,1.375,0.033,10.11,104.0885,9.74,10.73,42.21,0,110.1,13.4,10.53,81.2
"2009-11-11 00:16:00",1405758,0.948,115.8,3.856,0.045,9.96,104.0826,9.73,10.73,42.14,0,110.1,13.4,10.51,77.8
"2009-11-11 00:16:30",1405759,0.897,101.9,3.529,0.036,10.42,104.0769,9.71,10.72,41.93,0,110.1,13.4,10.50,63.9
"2009-11-11 00:17:00",1405760,2.008,103.5,6.087,1.308,12.45,104.0685,9.69,10.76,41.6,0,110.1,13.37,10.48,65.5
"2009-11-11 00:17:30",1405761,0.985,98.9,4.062,0.686,11.47,104.0637,9.68,10.86,41.49,0,110.1,13.37,10.46,60.9
"2009-11-11 00:18:00",1405762,1.465,101.5,5.916,1.265,11.98,104.0637,9.68,10.72,41.34,0,110.1,13.37,10.46,63.5
"2009-11-11 00:18:30",1405763,0.955,108.5,8.78,0.978,11.53,104.0637,9.68,10.89,41.52,0,110.1,13.37,10.46,70.5
"2009-11-11 00:19:00",1405764,1.171,121.3,4.016,1.183,10.83,104.0637,9.68,10.7,41.34,0,110.1,13.37,10.46,83.3
"2009-11-11 00:19:30",1405765,0.469,126.3,1.243,0.038,9.69,104.0637,9.68,10.68,41.41,0,110.1,13.4,10.46,88.3
"2009-11-11 00:20:00",1405766,0.548,127.2,1.36,0.046,9.79,104.0558,9.66,10.69,41.42,0,110.1,13.41,10.44,89.2
"2009-11-11 00:20:30",1405767,1.101,129.1,5.445,0.959,10.37,104.0363,9.61,10.68,41.4,0,110.1,13.37,10.39,91.1
"2009-11-11 00:21:00",1405768,1.691,134.9,6.107,1.214,12.01,104.0301,9.59,10.86,41.73,0,110.1,13.37,10.38,96.9
"2009-11-11 00:21:30",1405769,1.843,136.9,6.518,1.198,12.76,104.0298,9.59,10.88,41.98,0,110.1,13.37,10.38,98.9
"2009-11-11 00:22:00",1405770,1.601,136.4,4.578,0.946,10.81,104.0301,9.59,10.71,41.94,0,110.1,13.37,10.38,98.4
"2009-11-11 00:22:30",1405771,1.33,134.8,0.746,0.091,9.81,104.0316,9.59,10.64,42.16,0,110.1,13.41,10.38,96.8
"2009-11-11 00:23:00",1405772,1.489,134.2,0.629,0.03,10.24,104.0263,9.58,10.64,42.83,0,110.1,13.41,10.37,96.2
"2009-11-11 00:23:30",1405773,2.737,140.1,5.938,1.341,12.81,104.0085,9.54,10.82,43.57,0,110.1,13.37,10.32,102.1
"2009-11-11 00:24:00",1405774,1.612,134,2.48,0.056,10.57,104.0068,9.53,10.62,43.68,0,110.1,13.41,10.32,96.0
"2009-11-11 00:24:30",1405775,2.253,140.3,6.396,1.157,11.89,104.0071,9.53,10.76,44.05,0,110.1,13.37,10.32,102.3
"2009-11-11 00:25:00",1405776,2.472,142,5.29,1.124,11.17,104.0118,9.54,10.6,44.07,0,110.1,13.37,10.33,104.0
"2009-11-11 00:25:30",1405777,2.32,141.5,4.632,1.027,10.8,104.0156,9.55,10.58,44.18,0,110.1,13.37,10.34,103.5
"2009-11-11 00:26:00",1405778,2.674,144.6,6.101,1.205,12.32,104.016,9.55,10.71,44.42,0,110.1,13.37,10.34,106.6
"2009-11-11 00:26:30",1405779,2.418,141.6,6.679,1.256,12.36,104.0102,9.54,10.72,44.47,0,110.1,13.37,10.33,103.6
"2009-11-11 00:27:00",1405780,1.567,134.3,2.851,0.072,10.3,103.9928,9.5,10.65,44.56,0,110.1,13.41,10.28,96.3
"2009-11-11 00:27:30",1405781,1.355,130.4,1.143,0.074,9.87,103.992,9.49,10.56,44.35,0,110.1,13.41,10.28,92.4
"2009-11-11 00:28:00",1405782,1.258,122.5,1.81,0.037,10.36,103.9958,9.5,10.54,44.21,0,110.1,13.41,10.29,84.5
"2009-11-11 00:28:30",1405783,2.038,124.5,6.035,1.207,12.46,103.9967,9.51,10.72,44.4,0,110.1,13.38,10.29,86.5
"2009-11-11 00:29:00",1405784,1.471,117.2,5.27,0.821,10.87,103.997,9.51,10.57,44.22,0,110.1,13.38,10.29,79.2
"2009-11-11 00:29:30",1405785,1.337,112.8,0.815,0.492,10.31,103.997,9.51,10.52,44.11,0,110.1,13.38,10.29,74.8
"2009-11-11 00:30:00",1405786,2.294,116.7,6.763,1.322,12.5,103.997,9.51,10.69,44.22,0,110.1,13.38,10.29,78.7
"2009-11-11 00:30:30",1405787,1.25,112.3,0.96,0.494,10.04,103.9945,9.5,10.51,43.98,0,110.1,13.38,10.29,74.3
"2009-11-11 00:31:00",1405788,1.234,111.8,3.375,0.678,10.26,103.99,9.49,10.5,43.97,0,110.1,13.38,10.27,73.8
"2009-11-11 00:31:30",1405789,1.895,114.5,7.052,1.297,12.64,103.9826,9.47,10.64,43.96,0,110.1,13.38,10.25,76.5
"2009-11-11 00:32:00",1405790,0.998,113.6,3.352,0.663,10.52,103.975,9.45,10.48,43.8,0,110.1,13.38,10.24,75.6
"2009-11-11 00:32:30",1405791,1.916,118.4,7.083,1.289,12.42,103.9691,9.43,10.62,44.03,0,110.1,13.38,10.22,80.4
"2009-11-11 00:33:00",1405792,0.894,113.8,0.937,0.037,10.01,103.9643,9.42,10.47,43.88,0,110.1,13.42,10.21,75.8
"2009-11-11 00:33:30",1405793,0.928,114.8,1,0.022,9.86,103.9634,9.42,10.46,43.89,0,110.1,13.42,10.21,76.8
"2009-11-11 00:34:00",1405794,2.031,123.3,6.855,1.288,12.19,103.9634,9.42,10.58,43.99,0,110.1,13.38,10.21,85.3
"2009-11-11 00:34:30",1405795,0.759,111,3.439,0.477,10.87,103.9634,9.42,10.6,43.77,0,110.1,13.42,10.21,73.0
"2009-11-11 00:35:00",1405796,0.988,104.6,6.074,0.911,10.93,103.9634,9.42,10.49,43.42,0,110.1,13.39,10.21,66.6
"2009-11-11 00:35:30",1405797,0.888,98.6,2.513,0.703,10.09,103.9634,9.42,10.44,43.27,0,110.1,13.39,10.21,60.6
"2009-11-11 00:36:00",1405798,0.902,95.1,4.237,0.672,11.04,103.9609,9.41,10.58,43.29,0,110,13.39,10.20,57.1
"2009-11-11 00:36:30",1405799,1.678,92.7,7.31,1.233,11.59,103.9527,9.39,10.44,43.05,0,110.1,13.39,10.18,54.7
"2009-11-11 00:37:00",1405800,1.584,89.4,5.675,1.208,11.52,103.9358,9.35,10.46,43.06,0,110.1,13.39,10.13,51.4
"2009-11-11 00:37:30",1405801,1.319,83.6,5.22,1.024,11.11,103.9301,9.34,10.53,43.11,0,110.1,13.39,10.12,45.6
"2009-11-11 00:38:00",1405802,1.884,81.3,6.603,1.307,11.8,103.9295,9.33,10.46,42.97,0,110.1,13.39,10.12,43.3
"2009-11-11 00:38:30",1405803,1.396,79.08,4.966,1.058,11.07,103.9295,9.33,10.4,42.92,0,110.1,13.39,10.12,41.1
"2009-11-11 00:39:00",1405804,1.728,80.8,7.163,1.237,12.3,103.9295,9.33,10.54,43.13,0,110.1,13.39,10.12,42.8
"2009-11-11 00:39:30",1405805,0.886,74.67,2.182,0.475,10.41,103.9267,9.33,10.38,43.03,0,110.1,13.39,10.11,36.7
"2009-11-11 00:40:00",1405806,2.025,78.54,6.811,1.325,12.15,103.9174,9.3,10.42,43.12,0,110.1,13.39,10.09,40.5
"2009-11-11 00:40:30",1405807,1.119,76,4.784,0.895,11.53,103.9115,9.29,10.52,43.33,0,110.1,13.39,10.07,38.0
"2009-11-11 00:41:00",1405808,1.275,73.78,6.907,1.124,11.39,103.8996,9.26,10.35,43.21,0,110.1,13.39,10.04,35.8
"2009-11-11 00:41:30",1405809,0.659,68,0.63,0.004,10.1,103.8957,9.25,10.35,43.24,0,110.1,13.42,10.03,30.0
"2009-11-11 00:42:00",1405810,1.832,70.88,6.787,1.318,12.23,103.8957,9.25,10.48,43.37,0,110.1,13.39,10.03,32.9
"2009-11-11 00:42:30",1405811,0.542,61.61,1.313,0.032,9.76,103.8948,9.24,10.32,43.31,0,110.1,13.42,10.03,23.6
"2009-11-11 00:43:00",1405812,0.518,58.12,1.069,0.003,9.69,103.89,9.23,10.3,43.42,0,110.1,13.42,10.02,20.1
"2009-11-11 00:43:30",1405813,1.517,64.75,6.961,1.267,11.54,103.8731,9.19,10.33,43.51,0,110.1,13.39,9.97,26.8
"2009-11-11 00:44:00",1405814,1.175,69.62,9.51,1.198,12.09,103.8621,9.16,10.41,43.63,0,110.1,13.4,9.95,31.6
"2009-11-11 00:44:30",1405815,0.612,82.5,6.513,0.798,10.84,103.863,9.16,10.27,43.59,0,110.1,13.4,9.95,44.5
"2009-11-11 00:45:00",1405816,0.382,88.8,6.713,0.092,10.87,103.8653,9.17,10.26,43.69,0,110.1,13.44,9.95,50.8
"2009-11-11 00:45:30",1405817,0.606,106.6,2.649,0.036,10.66,103.8654,9.17,10.26,44.06,0,110.1,13.44,9.95,68.6
"2009-11-11 00:46:00",1405818,1.623,117.8,6.442,1.314,12.49,103.856,9.15,10.36,44.44,0,110.1,13.4,9.93,79.8
"2009-11-11 00:46:30",1405819,1.347,122.4,4.39,1.254,12.3,103.8501,9.13,10.29,44.59,0,110.1,13.4,9.91,84.4
"2009-11-11 00:47:00",1405820,0.543,91.8,6.654,0.854,10.66,103.8435,9.11,10.26,44.53,0,110.1,13.4,9.90,53.8
"2009-11-11 00:47:30",1405821,0.949,94.7,6.862,1.178,11.67,103.8432,9.11,10.28,44.06,0,110.1,13.4,9.90,56.7
"2009-11-11 00:48:00",1405822,0.249,90.2,1.036,0.02,9.78,103.844,9.12,10.17,43.83,0,110.1,13.44,9.90,52.2
"2009-11-11 00:48:30",1405823,0.286,90.1,1.242,0.033,9.75,103.8481,9.13,10.16,43.76,0,110.1,13.44,9.91,52.1
"2009-11-11 00:49:00",1405824,1.299,95.2,5.538,1.299,11.95,103.8534,9.14,10.31,43.82,0,110.1,13.4,9.92,57.2
"2009-11-11 00:49:30",1405825,0.57,81.2,4.924,0.691,9.89,103.8421,9.11,10.14,43.58,0,110.1,13.4,9.89,43.2
"2009-11-11 00:50:00",1405826,0.377,70.93,3.563,0,9.17,103.8241,9.06,10.12,43.51,0,110.1,13.44,9.85,32.9
"2009-11-11 00:50:30",1405827,0.385,57.02,4.165,0.019,9.29,103.8225,9.06,10.11,43.49,0,110.1,13.44,9.84,19.0
"2009-11-11 00:51:00",1405828,0.806,50.13,4.998,0.92,10.26,103.8248,9.07,10.14,43.6,0,110.1,13.41,9.85,12.1
"2009-11-11 00:51:30",1405829,1.645,50.93,6.664,1.269,12.23,103.828,9.07,10.16,43.77,0,110.1,13.41,9.86,12.9
"2009-11-11 00:52:00",1405830,0.557,48.98,2.703,0.036,10.11,103.8252,9.07,10.07,43.91,0,110.1,13.44,9.85,11.0
"2009-11-11 00:52:30",1405831,0.57,61.26,6.414,0.044,10.26,103.8061,9.02,10.06,44.29,0,110.1,13.44,9.80,23.3
"2009-11-11 00:53:00",1405832,0.688,73.01,4.995,0.478,10.6,103.7953,8.99,10.07,44.66,0,110.1,13.44,9.77,35.0
"2009-11-11 00:53:30",1405833,2.177,86.5,9.21,1.325,13.45,103.7953,8.99,10.17,45.04,0,110.1,13.41,9.77,48.5
"2009-11-11 00:54:00",1405834,2.35,89.7,7.839,1.293,14.23,103.7953,8.99,10.27,45.46,0,110.1,13.41,9.77,51.7
"2009-11-11 00:54:30",1405835,1.319,99.7,4.296,1.108,11.15,103.7942,8.99,10.01,45.61,0,110.1,13.41,9.77,61.7
"2009-11-11 00:55:00",1405836,1.039,102.7,6.039,0.825,10.03,103.7789,8.95,10,45.86,0,110.1,13.4,9.73,64.7
"2009-11-11 00:55:30",1405837,1.603,110.3,6.263,1.183,11.36,103.7628,8.91,10.12,46.17,0,110.1,13.4,9.69,72.3
"2009-11-11 00:56:00",1405838,1.307,107.9,3.948,0.898,9.77,103.7614,8.9,9.96,46.24,0,110.1,13.4,9.69,69.9
"2009-11-11 00:56:30",1405839,0.986,109.3,1.252,0.026,9.38,103.7614,8.9,9.97,46.51,0,110.1,13.44,9.69,71.3
"2009-11-11 00:57:00",1405840,0.958,109.4,1.251,0.042,9.65,103.7614,8.9,9.95,46.78,0,110.1,13.41,9.69,71.4
"2009-11-11 00:57:30",1405841,1.938,114.3,6.209,1.273,12.15,103.7614,8.9,10.07,47.09,0,110.1,13.4,9.69,76.3
"2009-11-11 00:58:00",1405842,0.934,108.9,0.693,0.002,10.45,103.7569,8.89,9.94,47.21,0,110.1,13.44,9.68,70.9
"2009-11-11 00:58:30",1405843,0.903,107.1,0.979,0.035,10.58,103.7448,8.86,9.91,47.53,0,110.1,13.44,9.64,69.1
"2009-11-11 00:59:00",1405844,0.836,106.5,2.375,0.031,10.67,103.7357,8.84,9.92,47.73,0,110.1,13.44,9.62,68.5
"2009-11-11 00:59:30",1405845,1.842,106.5,6.194,1.312,13.17,103.7301,8.82,10.07,47.92,0,110.1,13.41,9.61,68.5
"2009-11-11 01:00:00",1405846,2.295,109.6,6.704,1.252,14.28,103.7275,8.82,10.16,47.84,0,110,13.41,9.60,71.6
"2009-11-11 01:00:30",1405847,1.354,99.2,6.764,1.25,11.95,103.7275,8.82,9.9,47.53,0,110.1,13.41,9.60,61.2
"2009-11-11 01:01:00",1405848,1.352,102.6,7.952,1.218,11.08,103.7275,8.82,9.87,47.61,0,110.1,13.41,9.60,64.6
"2009-11-11 01:01:30",1405849,1.23,96.1,5.696,1.056,11.05,103.7275,8.82,10.05,47.94,0,110.1,13.41,9.60,58.1
"2009-11-11 01:02:00",1405850,1.411,101.1,5.031,1.12,10.27,103.7275,8.82,9.87,47.84,0,110.1,13.41,9.60,63.1
"2009-11-11 01:02:30",1405851,0.892,109.5,1.966,0.076,9.12,103.7275,8.82,9.85,47.96,0,110.1,13.45,9.60,71.5
"2009-11-11 01:03:00",1405852,1.274,112,4.54,0.858,9.86,103.7275,8.82,9.85,48.14,0,110.1,13.41,9.60,74.0
"2009-11-11 01:03:30",1405853,1.586,119.4,6.385,0.963,11.27,103.727,8.82,10.01,48.48,0,110.1,13.42,9.60,81.4
"2009-11-11 01:04:00",1405854,1.866,118,5.801,1.214,11.11,103.7222,8.8,9.84,48.45,0,110.1,13.42,9.59,80.0
"2009-11-11 01:04:30",1405855,1.026,120.5,7.173,0.048,10.21,103.716,8.79,9.84,48.5,0,110.1,13.45,9.57,82.5
"2009-11-11 01:05:00",1405856,0.994,123.7,3.212,0.036,10.32,103.7089,8.77,9.9,48.6,0,110.1,13.45,9.55,85.7
"2009-11-11 01:05:30",1405857,2.301,131.7,6.847,1.273,12.71,103.7002,8.75,9.92,48.65,0,110.1,13.42,9.53,93.7
"2009-11-11 01:06:00",1405858,1.842,131.8,6.439,1.195,11.74,103.6951,8.73,9.93,48.66,0,110.1,13.42,9.52,93.8
"2009-11-11 01:06:30",1405859,1.907,131.1,6.165,1.251,12.07,103.6939,8.73,9.96,48.72,0,110,13.42,9.51,93.1
"2009-11-11 01:07:00",1405860,1.69,131.5,4.878,1.176,10.87,103.6937,8.73,9.83,48.58,0,110.1,13.42,9.51,93.5
"2009-11-11 01:07:30",1405861,2.061,135.9,7.184,1.304,11.82,103.6937,8.73,9.95,48.74,0,110,13.42,9.51,97.9
"2009-11-11 01:08:00",1405862,0.852,128.5,0.978,0.034,9.24,103.6937,8.73,9.8,48.61,0,110.1,13.45,9.51,90.5
"2009-11-11 01:08:30",1405863,0.796,130.3,0.705,0.035,9.5,103.694,8.73,9.79,48.6,0,110.1,13.42,9.51,92.3
"2009-11-11 01:09:00",1405864,1.48,136.8,7.358,1.161,11.21,103.694,8.73,9.95,48.77,0,110.1,13.42,9.51,98.8
"2009-11-11 01:09:30",1405865,1.29,141.1,4.839,1.009,10.35,103.6937,8.73,9.79,48.67,0,110.1,13.42,9.51,103.1
"2009-11-11 01:10:00",1405866,0.776,144.5,1.552,0.038,9.66,103.6937,8.73,9.78,48.74,0,110,13.45,9.51,106.5
"2009-11-11 01:10:30",1405867,0.685,149.3,1.651,0.037,9.96,103.6937,8.73,9.79,48.79,0,110.1,13.46,9.51,111.3
"2009-11-11 01:11:00",1405868,1.073,153.7,4.471,0.911,10.66,103.694,8.73,9.84,48.87,0,110,13.42,9.51,115.7
"2009-11-11 01:11:30",1405869,1.961,168.3,6.006,1.328,13.16,103.6937,8.73,9.94,49.04,0,110.1,13.42,9.51,130.3
"2009-11-11 01:12:00",1405870,1.803,170.4,6.925,1.279,12.92,103.6951,8.73,9.88,49.02,0,110,13.42,9.52,132.4
"2009-11-11 01:12:30",1405871,1.446,169.1,6.267,1.119,12.04,103.6945,8.73,9.94,49.15,0,110.1,13.41,9.52,131.1
"2009-11-11 01:13:00",1405872,0.902,165.5,0.521,0.035,10,103.6949,8.73,9.77,49.09,0,110,13.45,9.52,127.5
"2009-11-11 01:13:30",1405873,1.461,166.7,4.818,0.991,10.19,103.6918,8.73,9.79,49.28,0,110,13.42,9.51,128.7
"2009-11-11 01:14:00",1405874,2.255,172.5,6.68,1.294,11.99,103.6899,8.72,9.91,49.67,0,110,13.41,9.50,134.5
"2009-11-11 01:14:30",1405875,2.009,172.6,6.263,1.263,11.9,103.6874,8.71,9.88,49.79,0,110,13.41,9.50,134.6
"2009-11-11 01:15:00",1405876,1.489,166.5,4.524,0.819,10.44,103.6894,8.72,9.89,50.1,0,110,13.41,9.50,128.5
"2009-11-11 01:15:30",1405877,1.689,167.3,5.775,1.094,10.84,103.6847,8.71,9.76,50.16,0,110,13.41,9.49,129.3
"2009-11-11 01:16:00",1405878,1.076,166.5,0.826,0.026,10.02,103.6799,8.7,9.74,50.32,0,110,13.45,9.48,128.5
"2009-11-11 01:16:30",1405879,1.022,167.1,0.393,0.031,10.15,103.6749,8.68,9.76,50.18,0,110,13.46,9.47,129.1
"2009-11-11 01:17:00",1405880,1.225,169.2,4.194,0.695,11.23,103.6758,8.69,9.9,50.29,0,110,13.42,9.47,131.2
"2009-11-11 01:17:30",1405881,2.883,176.5,6.097,1.072,14.29,103.6759,8.69,9.95,50.58,0,110,13.42,9.47,138.5
"2009-11-11 01:18:00",1405882,1.828,170.7,6.306,1.259,12.44,103.6776,8.69,9.88,50.6,0,110,13.42,9.47,132.7
"2009-11-11 01:18:30",1405883,0.763,171.5,1.491,0.039,9.93,103.6889,8.72,9.75,50.22,0,110,13.46,9.50,133.5
"2009-11-11 01:19:00",1405884,0.703,174.5,1.036,0.046,9.67,103.7063,8.76,9.73,50.07,0,110,13.46,9.55,136.5
"2009-11-11 01:19:30",1405885,1.251,181.2,7.341,1.07,10.49,103.7148,8.78,9.74,49.91,0,110,13.43,9.57,143.2
"2009-11-11 01:20:00",1405886,0.98,183.8,5.455,0.89,11.12,103.7159,8.79,9.9,49.81,0,110,13.43,9.57,145.8
"2009-11-11 01:20:30",1405887,2.069,189.9,7.661,1.336,12.81,103.7203,8.8,9.94,49.75,0,110,13.43,9.58,151.9
"2009-11-11 01:21:00",1405888,0.992,191,6.774,1.011,10.37,103.7178,8.79,9.75,49.44,0,110,13.43,9.58,153.0
"2009-11-11 01:21:30",1405889,0.604,182.6,3.744,0.068,9.67,103.7171,8.79,9.75,49.31,0,110,13.46,9.57,144.6
"2009-11-11 01:22:00",1405890,0.7,183.6,2.327,0.044,9.75,103.7154,8.79,9.74,49.36,0,110,13.46,9.57,145.6
"2009-11-11 01:22:30",1405891,0.745,187.6,3.312,0.041,9.77,103.7087,8.77,9.74,49.63,0,110,13.46,9.55,149.6
"2009-11-11 01:23:00",1405892,0.78,194,2.378,0.028,10.03,103.6957,8.74,9.78,49.98,0,110,13.46,9.52,156.0
"2009-11-11 01:23:30",1405893,2.204,208.3,6.747,1.32,13.38,103.6943,8.73,10.02,50.4,0,110,13.43,9.51,170.3
"2009-11-11 01:24:00",1405894,2.11,211.7,5.916,1.318,12.76,103.6943,8.73,9.86,50.42,0,110,13.43,9.51,173.7
"2009-11-11 01:24:30",1405895,0.793,207.7,0.207,0,9.91,103.6949,8.73,9.73,50.43,0,110,13.46,9.52,169.7
"2009-11-11 01:25:00",1405896,0.847,206.6,0.94,0.01,9.43,103.6949,8.73,9.74,50.49,0,110,13.46,9.52,168.6
"2009-11-11 01:25:30",1405897,0.899,201.6,1.275,0.039,9.3,103.6949,8.73,9.71,50.54,0,110,13.47,9.52,163.6
"2009-11-11 01:26:00",1405898,1.117,199.6,0.603,0.492,9.82,103.6943,8.73,9.75,50.66,0,110,13.43,9.51,161.6
"2009-11-11 01:26:30",1405899,2.792,208.9,6.578,1.281,13.52,103.6935,8.73,9.98,50.76,0,110,13.43,9.51,170.9
"2009-11-11 01:27:00",1405900,2.192,205.1,6.929,1.267,11.56,103.6774,8.69,9.8,50.69,0,110,13.43,9.47,167.1
"2009-11-11 01:27:30",1405901,1.226,198.8,0.422,0.031,9.35,103.6638,8.65,9.69,50.85,0,110,13.46,9.44,160.8
"2009-11-11 01:28:00",1405902,1.203,197.9,0.663,0.022,9.3,103.661,8.65,9.69,51.03,0,110,13.46,9.43,159.9
"2009-11-11 01:28:30",1405903,1.705,198,4.633,1.064,10.23,103.661,8.65,9.67,51.06,0,110,13.43,9.43,160.0
"2009-11-11 01:29:00",1405904,2.137,199.2,6.814,1.241,11.85,103.661,8.65,9.85,51.09,0,110,13.43,9.43,161.2
"2009-11-11 01:29:30",1405905,2.177,200.8,6.416,1.343,12.05,103.661,8.65,9.75,50.93,0,110,13.43,9.43,162.8
"2009-11-11 01:30:00",1405906,0.896,196.7,0.902,0.037,9.97,103.661,8.65,9.72,50.87,0,110,13.46,9.43,158.7
"2009-11-11 01:30:30",1405907,0.812,200,2.2,0.053,9.46,103.661,8.65,9.65,50.8,0,110,13.46,9.43,162.0
"2009-11-11 01:31:00",1405908,0.663,211.3,4.311,0.049,9.09,103.661,8.65,9.62,50.75,0,110,13.47,9.43,173.3
"2009-11-11 01:31:30",1405909,0.585,222.3,2.143,0.027,9.45,103.661,8.65,9.62,50.85,0,110,13.47,9.43,184.3
"2009-11-11 01:32:00",1405910,1.595,231.9,5.984,1.319,11.99,103.6576,8.64,9.77,50.64,0,110,13.43,9.42,193.9
"2009-11-11 01:32:30",1405911,2.176,235.3,7.121,1.282,13.31,103.6514,8.62,9.82,50.5,0,110,13.43,9.40,197.3
"2009-11-11 01:33:00",1405912,0.907,229.2,4.063,0.922,10.42,103.6441,8.6,9.61,50.23,0,110,13.44,9.39,191.2
"2009-11-11 01:33:30",1405913,0.554,231.2,1.669,0.039,9.8,103.6288,8.56,9.61,50.21,0,110,13.47,9.35,193.2
"2009-11-11 01:34:00",1405914,0.552,234.3,2.62,0.037,9.72,103.6271,8.56,9.61,50.15,0,110,13.47,9.34,196.3
"2009-11-11 01:34:30",1405915,0.596,232.1,2.659,0.055,9.98,103.6271,8.56,9.6,50.06,0,110,13.47,9.34,194.1
"2009-11-11 01:35:00",1405916,1.739,231,5.432,1.224,12.03,103.6271,8.56,9.73,50.22,0,110,13.44,9.34,193.0
"2009-11-11 01:35:30",1405917,0.848,227.5,2.539,0.678,10.17,103.6271,8.56,9.58,50.07,0,110,13.44,9.34,189.5
"2009-11-11 01:36:00",1405918,1.581,225.2,7.391,1.237,11.9,103.6271,8.56,9.74,50.22,0,110,13.44,9.34,187.2
"2009-11-11 01:36:30",1405919,1.091,226.6,4.001,0.916,10.18,103.6263,8.56,9.57,50.18,0,110,13.44,9.34,188.6
"2009-11-11 01:37:00",1405920,0.736,228.6,1.887,0.021,9.55,103.611,8.52,9.55,50.17,0,110,13.48,9.30,190.6
"2009-11-11 01:37:30",1405921,0.801,234.2,2.218,0.004,9.65,103.5989,8.49,9.55,50.11,0,110,13.48,9.27,196.2
"2009-11-11 01:38:00",1405922,0.755,240.6,1.45,0.036,9.98,103.5938,8.48,9.54,50.1,0,110,13.48,9.26,202.6
"2009-11-11 01:38:30",1405923,1.169,247.4,5.582,1.009,11.09,103.5932,8.47,9.6,50.14,0,110,13.44,9.26,209.4
"2009-11-11 01:39:00",1405924,2.791,255.4,6.112,1.141,14.21,103.5932,8.47,9.76,50.3,0,110,13.44,9.26,217.4
"2009-11-11 01:39:30",1405925,1.416,254.2,7.16,1.135,11.74,103.5932,8.47,9.64,50.23,0,110,13.44,9.26,216.2
"2009-11-11 01:40:00",1405926,0.667,250.9,1.385,0.036,9.78,103.5932,8.47,9.52,50.12,0,110,13.48,9.26,212.9
"2009-11-11 01:40:30",1405927,1.198,251.8,4.241,1.057,10.25,103.5935,8.47,9.51,50.13,0,110,13.44,9.26,213.8
"2009-11-11 01:41:00",1405928,1.358,251.8,5.938,1.162,11.34,103.5935,8.47,9.65,50.31,0,110,13.44,9.26,213.8
"2009-11-11 01:41:30",1405929,1.012,250.5,3.886,0.89,10.16,103.5921,8.47,9.48,50.19,0,110,13.44,9.25,212.5
"2009-11-11 01:42:00",1405930,1.323,254.7,4.84,1.143,10.7,103.5845,8.45,9.51,50.24,0,110,13.44,9.23,216.7
"2009-11-11 01:42:30",1405931,1.896,258.4,7.084,1.311,12.07,103.5692,8.41,9.63,50.35,0,110,13.45,9.19,220.4
"2009-11-11 01:43:00",1405932,0.707,250.5,0.785,0.032,9.45,103.5602,8.39,9.47,50.25,0,110,13.48,9.17,212.5
"2009-11-11 01:43:30",1405933,0.793,252.3,0.839,0,9.11,103.5599,8.39,9.46,50.28,0,110,13.48,9.17,214.3
"2009-11-11 01:44:00",1405934,0.782,255.1,1.306,0.038,9.38,103.5608,8.39,9.47,50.31,0,110,13.48,9.17,217.1
"2009-11-11 01:44:30",1405935,0.731,253.8,2.489,0.018,9.93,103.5608,8.39,9.46,50.49,0,110,13.48,9.17,215.8
"2009-11-11 01:45:00",1405936,1.175,251.6,5.077,1.007,10.88,103.5611,8.39,9.46,50.81,0,110,13.44,9.17,213.6
"2009-11-11 01:45:30",1405937,2.275,261.3,6.599,1.299,13.79,103.5634,8.4,9.71,51.24,0,110,13.44,9.18,223.3
"2009-11-11 01:46:00",1405938,1.469,253.6,6.813,1.21,11.37,103.5631,8.4,9.43,50.91,0,110,13.44,9.18,215.6
"2009-11-11 01:46:30",1405939,0.699,244.8,1.587,0.035,10.03,103.5634,8.4,9.44,50.76,0,110,13.48,9.18,206.8
"2009-11-11 01:47:00",1405940,1.343,243,6.733,1.131,11.02,103.5658,8.4,9.44,50.73,0,110,13.44,9.19,205.0
"2009-11-11 01:47:30",1405941,1.574,241.8,5.181,1.235,11.94,103.5638,8.4,9.56,50.91,0,110,13.44,9.18,203.8
"2009-11-11 01:48:00",1405942,0.933,241.3,3.712,0.83,10.27,103.5615,8.39,9.43,50.95,0,110,13.44,9.17,203.3
"2009-11-11 01:48:30",1405943,1.859,251.2,6.72,1.307,12.18,103.5534,8.37,9.56,51.15,0,110,13.44,9.15,213.2
"2009-11-11 01:49:00",1405944,0.733,248.4,1.53,0.033,9.55,103.5409,8.34,9.4,51.02,0,110,13.48,9.12,210.4
"2009-11-11 01:49:30",1405945,0.767,251,2.072,0.037,9.22,103.5348,8.32,9.41,51.1,0,110,13.48,9.11,213.0
"2009-11-11 01:50:00",1405946,0.765,253.7,2.819,0.045,9.31,103.5348,8.32,9.4,50.84,0,110,13.48,9.11,215.7
"2009-11-11 01:50:30",1405947,0.767,252,1.475,0.041,9.73,103.5351,8.33,9.39,50.6,0,110,13.49,9.11,214.0